Regional Weather Roundup
Issued by NWS

Home | Current Version | Previous Version | Graphics & Text | Print | Product List | Glossary On
Versions: 1 2 3 4 5 6 7 8 9 10 11 12 13 14 15 16 17 18 19 20 21 22 23 24 25 26 27 28 29 30 31 32 33 34 35 36 37 38 39 40 41 42 43 44 45 46 47 48 49 50
000
ASUS43 KLSX 020007
RWRMO

WEATHER SUMMARY FOR MISSOURI
NATIONAL WEATHER SERVICE SPRINGFIELD MO
600 PM CST SUN MAR 01 2015

NOTE: "FAIR" INDICATES FEW OR NO CLOUDS BELOW 12,000 FEET WITH NO
       SIGNIFICANT WEATHER AND/OR OBSTRUCTIONS TO VISIBILITY.
       CURRENT SKY AND/OR WEATHER CONDITIONS ARE NOT AVAILABLE FOR
       CHILLICOTHE AND FARMINGTON.

MOZ001>031-035>038-043-044-053-054-020100-
...NORTHERN AND WESTERN MISSOURI...

CITY           SKY/WX    TMP DP  RH WIND       PRES   REMARKS
KANSAS CTY INT MOCLDY    31  21  66 NW6       30.39R WCI  25
6HR MIN TEMP:  29; 6HR MAX TEMP:  33;

KANSAS C DTWN  PTCLDY    33  21  61 NW6       30.40S WCI  28
6HR MIN TEMP:  29; 6HR MAX TEMP:  35;

LEE`S SUMMIT   PTCLDY    31  21  66 NW6       30.39R WCI  25
6HR MIN TEMP:  29; 6HR MAX TEMP:  33;

ST JOSEPH      MOCLDY    31  22  69 S3        30.40S
6HR MIN TEMP:  28; 6HR MAX TEMP:  33;

CHILLICOTHE      N/A     31  20  63 NW3       30.40S
6HR MIN TEMP:  30; 6HR MAX TEMP:  33;

KIRKSVILLE     PTCLDY    27  20  75 W6        30.37R WCI  20
6HR MIN TEMP:  26; 6HR MAX TEMP:  31;


$$
MOZ066>068-077>081-088>096-101>105-020100-
...SOUTHWEST MISSOURI...

CITY           SKY/WX    TMP DP  RH WIND       PRES   REMARKS
SPRINGFIELD    CLOUDY    30  24  78 N10       30.36R WCI  21
6HR MIN TEMP:  30; 6HR MAX TEMP:  34;

JOPLIN         CLOUDY    30  23  75 NE6       30.39S WCI  24
6HR MIN TEMP:  28; 6HR MAX TEMP:  33;


$$
MOZ032>034-039>042-045>050-055>058-069>072-020100-
...CENTRAL MISSOURI...

CITY           SKY/WX    TMP DP  RH WIND       PRES   REMARKS
COLUMBIA       MOCLDY    29  21  72 NW8       30.38R WCI  21
6HR MIN TEMP:  28; 6HR MAX TEMP:  30;

JEFFERSON CITY MOCLDY    30  22  72 W8        30.41R WCI  22
6HR MIN TEMP:  29; 6HR MAX TEMP:  31; 6HR PCP:  0.05;

ROLLA          CLOUDY    28  22  78 NW7       30.34R WCI  21
6HR MIN TEMP:  27; 6HR MAX TEMP:  30; 6HR PCP: TRACE;

SEDALIA        PTCLDY    26  19  74 NW5       30.40R WCI  20
6HR MIN TEMP:  26; 6HR MAX TEMP:  30;

WHITEMAN AFB   PTCLDY    28  19  69 N3        30.39R
WARRENSBURG    PTCLDY    30  21  69 CALM      30.41R
OSAGE BEACH    CLOUDY    30  21  69 CALM      30.38R

$$
MOZ051-052-059>065-020100-
...EAST CENTRAL MISSOURI...

CITY           SKY/WX    TMP DP  RH WIND       PRES   REMARKS
ST LOUIS INTL  CLOUDY    31  23  72 NW8       30.38R WCI  23
6HR MIN TEMP:  30; 6HR MAX TEMP:  32; 6HR PCP: TRACE;

SPIRIT OF STL  MOCLDY    31  23  72 NW7       30.38R WCI  24
6HR MIN TEMP:  29; 6HR MAX TEMP:  32; 6HR PCP: TRACE;

ST CHARLES     MOCLDY    30  22  72 NW8       30.38R WCI  22
6HR MIN TEMP:  29; 6HR MAX TEMP:  32;


$$
MOZ072>076-082>087-097>100-106>115-020100-
...SOUTH CENTRAL AND SOUTHEAST MISSOURI...

CITY           SKY/WX    TMP DP  RH WIND       PRES   REMARKS
CAPE GIRARDEAU CLOUDY    35  32  88 N7        30.36R WCI  29
6HR MIN TEMP:  35; 6HR MAX TEMP:  38;

FARMINGTON     CLOUDY    30  27  86 N7        30.38R WCI  23
6HR MIN TEMP:  30; 6HR MAX TEMP:  34;

POPLAR BLUFF   CLOUDY    37  31  78 CALM      30.35R
6HR MIN TEMP:  36; 6HR MAX TEMP:  39;

WEST PLAINS    CLOUDY    34  28  79 N6        30.35R WCI  29
6HR MIN TEMP:  34; 6HR MAX TEMP:  35;


$$


USA.gov is the U.S. government's official web portal to all federal, state and local government web resources and services.